FENGYUN 1C DEB, 32357

Orbit data source: Space-Track

FENGYUN 1C DEB, 32357 is space debris in SSO originally from a launch on Mon, 10 May 1999 UTC launched from the Taiyaun Space Center, China (TSC). Fengyun 1C debris stems from the Chinese weather satellite Fengyun-1C, which was intentionally destroyed by a Chinese anti-satellite missile in 2007. This event dramatically increased the amount of space debris, with thousands of trackable fragments posing hazards to satellites and human spaceflight. The Fengyun 1C debris cloud has become a focal point in discussions about space sustainability and the need for international regulations to prevent the creation of new debris.

Loading next visibility...
Identifier
32357, 1999-025CZA
Orbit
SSO
Country
Flag of CNCN / PRC
Related business
Manufacturer
Unknown
Mission
Spacecraft
Bus & Motor
Unknown
Mass
Unknown
Launch date (UTC)
1999-05-10 (27 years ago)
Launch vehicle
Unknown
Launch site
Taiyaun Space Center, China (TSC)
Object type
Payload
Rocket body
Debris
Shape & HBR
Unknown shape, 0.1 m
Radar Cross Section
Small (<0.1 m²)

Expand to show TLE details & history
Last TLE update: 2 days ago

TLE from 2 days ago
0 FENGYUN 1C DEB
1 32357U 99025CZA 26206.85358037  .00003005  00000-0  15051-2 0  9992
2 32357  98.8351 233.8663 0481358 311.0869 229.1720 13.70600789698696
Epoch: 2026-07-25T20:29Z
TLE epoch observation values (Epoch: 2026-07-25T20:29:09.343Z)
Latitude
3.61834°
Longitude
163.57783°
Altitude
1,241.355 km
Speed
7.115 km/s
True Right ascension
03h 37m 42s
True Declination
3° 35' 53"
Sunlit
Object was in daylight at epoch
Visualization orbit readout
Latitude
Unknown
Longitude
Unknown
Altitude
Unknown
Speed
Unknown
Apparent Right ascension
Unknown
Apparent Declination
Unknown
Sunlit
N/A
Visualization observer readout
Local Sidereal Time
00:03:01
Azimuth
Unknown
Elevation
Unknown
Doppler factor
Unknown
Orbital elements
Apogee altitude
1,349.531 km
Perigee altitude
639.742 km
Semi-major axis
7,372.773 km
Eccentricity
0.04814
Inclination
98.8351°
RAAN
233.8663°
Arg. of periapsis
311.0869°
True anomaly
225.15968°
Mean anomaly
229.172°
Eccentric anomaly
227.15002°
Mean motion
3.42844 °/min
Orbital period
105 mins
BSTAR
0.0015051
Loading maneuver chart data...
Computing Atmospheric mass density...
Loading historical data...
Loading historical data...
Loading historical data...
Loading historical data...
Loading historical data...
Loading historical data...
Loading historical data...

Documentation

Showing up to 5 results
|